Content
SEND FEEDBACK

Daily
Averages
Monthly
Summary
United States of America

INARAJAN, GUAM


Home > North America > United States > Guam
Elevation: 85 meters     Latitude: 13 18N     Longitude: 144 44E

WEATHER
 
SELECT A DAY
Number of Records: 341,716;   Date Range: 1/1/95 - 7/22/14
 
SHARE

PRINT THIS DATA

[ ← Previous Day ]
WEATHER ALMANAC - 17 APRIL, 2013
[ Next Day → ]
[ °F ]   °C
Weather ElementAverageHighLow
Temperature26.8 °C29.1 °C (12:55 pm)23.6 °C (5:55 am)
Dewpoint22.2 °C23 °C (10:31 am)20.5 °C (5:55 am)
Humidity75.9 %84 % (10:55 pm)66 % (2:50 pm)
Barometer1010.2 hPa1011.9 hPa (8:15 am)1008.1 hPa (3:55 pm)
Wind Speed16.9 km/h22.2 km/h (9:37 am)
Wind Gust31.5 km/h (3:36 pm)
Weather ElementAverage
Visibility16.1 km
Wind DirectionENE (70.3 °)

Weather ElementTotal
Precipitation---
Cooling Degree Days8.1 (Base 18.3)
Growing Degree Days16.4 (Base 10)
Averaged from 58 records on 17 April, 2013
WEATHER CONDITIONS BREAKOUT
WIND DIRECTION BREAKOUT
WEATHER BY HOUR - 17 APRIL, 2013
[ °F ]   °C
Local TimeTemperatureDewpointHumidityBarometerVisibilityWind DirectionWind SpeedGust SpeedPrecipitationEventsConditions
1:26 AM26 °C22 °C78 %1010.8 hPa16.1 kmNE (50°)16.7 km/hMostly Cloudy
1:27 AM26 °C22 °C78 %1010.8 hPa16.1 kmNE (40°)14.8 km/hScattered Clouds
1:30 AM26 °C22 °C78 %1010.8 hPa16.1 kmNE (40°)16.7 km/hMostly Cloudy
1:48 AM25 °C22 °C83 %1010.5 hPa16.1 kmNE (50°)16.7 km/hScattered Clouds
1:55 AM25.4 °C21.6 °C79 %1010.5 hPa16.1 kmNE (50°)16.7 km/hScattered Clouds
2:55 AM25 °C21.4 °C80 %1010.2 hPa16.1 kmNE (50°)20.4 km/hPartly Cloudy
3:55 AM24.9 °C21.7 °C82 %1009.8 hPa16.1 kmENE (60°)16.7 km/hPartly Cloudy
4:55 AM24.8 °C21.1 °C80 %1010.2 hPa16.1 kmNE (50°)14.8 km/hPartly Cloudy
5:55 AM23.6 °C20.5 °C83 %1010.2 hPa16.1 kmENE (60°)14.8 km/hClear
6:55 AM25.1 °C21.3 °C79 %1010.8 hPa16.1 kmENE (60°)18.5 km/hPartly Cloudy
7:55 AM26.4 °C22 °C77 %1011.5 hPa16.1 kmENE (60°)14.8 km/hScattered Clouds
8:05 AM27 °C22 °C74 %1011.5 hPa16.1 kmEast (80°)14.8 km/hMostly Cloudy
8:15 AM27 °C22 °C74 %1011.9 hPa16.1 kmENE (60°)20.4 km/hScattered Clouds
8:55 AM27.4 °C21.9 °C72 %1011.9 hPa16.1 kmENE (60°)18.5 km/hScattered Clouds
9:07 AM27 °C22 °C74 %1011.9 hPa16.1 kmENE (60°)18.5 km/hMostly Cloudy
9:28 AM28 °C22 °C70 %1011.9 hPa16.1 kmNE (50°)18.5 km/hScattered Clouds
9:37 AM28 °C22 °C70 %1011.5 hPa16.1 kmENE (60°)22.2 km/hMostly Cloudy
9:55 AM28.2 °C22.4 °C71 %1011.5 hPa16.1 kmENE (60°)16.7 km/hMostly Cloudy
10:31 AM28 °C23 °C74 %1010.8 hPa16.1 kmEast (80°)18.5 km/hScattered Clouds
10:55 AM28.9 °C22.8 °C69 %1010.5 hPa16.1 kmENE (60°)20.4 km/hScattered Clouds
11:08 AM28 °C23 °C74 %1010.5 hPa16.1 kmENE (70°)14.8 km/hMostly Cloudy
11:36 AM28 °C23 °C74 %1010.2 hPa16.1 kmEast (80°)20.4 km/hScattered Clouds
11:55 AM28.8 °C22.5 °C69 %1010.2 hPa16.1 kmENE (70°)20.4 km/hScattered Clouds
12:55 PM29.1 °C22.4 °C67 %1009.8 hPa16.1 kmEast (80°)18.5 km/hMostly Cloudy
1:55 PM29 °C22.4 °C67 %1008.8 hPa16.1 kmEast (80°)20.4 km/hClear
2:44 PM29 °C23 °C70 %1008.5 hPa16.1 kmEast (80°)18.5 km/hMostly Cloudy
2:46 PM29 °C23 °C70 %1008.5 hPa16.1 kmENE (60°)16.7 km/hScattered Clouds
2:48 PM28 °C23 °C74 %1008.5 hPa16.1 kmENE (60°)16.7 km/hMostly Cloudy
2:50 PM29 °C22 °C66 %1008.5 hPa16.1 kmENE (70°)22.2 km/hScattered Clouds
2:55 PM29 °C22.4 °C67 %1008.5 hPa16.1 kmEast (80°)18.5 km/hScattered Clouds
2:56 PM29 °C22 °C66 %1008.5 hPa16.1 kmENE (70°)16.7 km/hMostly Cloudy
3:14 PM29 °C22 °C66 %1008.5 hPa16.1 kmEast (80°)20.4 km/hScattered Clouds
3:17 PM28 °C23 °C74 %1008.5 hPa16.1 kmEast (80°)16.7 km/hMostly Cloudy
3:36 PM28 °C23 °C74 %1008.5 hPa16.1 kmEast (80°)20.4 km/h31.5 km/hScattered Clouds
3:55 PM28.4 °C22 °C68 %1008.1 hPa16.1 kmEast (80°)18.5 km/hScattered Clouds
4:55 PM28 °C21.9 °C69 %1008.5 hPa16.1 kmEast (100°)16.7 km/hPartly Cloudy
5:55 PM26.7 °C21.7 °C74 %1009.5 hPa16.1 kmEast (90°)14.8 km/hPartly Cloudy
6:38 PM26 °C22 °C78 %1009.8 hPa16.1 kmENE (70°)13 km/hMostly Cloudy
6:41 PM26 °C22 °C78 %1009.8 hPa16.1 kmEast (80°)14.8 km/hMostly Cloudy
6:45 PM26 °C22 °C78 %1009.8 hPa16.1 kmEast (80°)13 km/hMostly Cloudy
6:55 PM26.3 °C22.1 °C78 %1010.2 hPa16.1 kmEast (80°)16.7 km/hMostly Cloudy
6:57 PM26 °C22 °C78 %1010.2 hPa16.1 kmEast (80°)14.8 km/hMostly Cloudy
7:00 PM26 °C22 °C78 %1010.2 hPa16.1 kmENE (70°)16.7 km/hMostly Cloudy
7:55 PM25.8 °C21.8 °C78 %1010.5 hPa16.1 kmENE (60°)11.1 km/hPartly Cloudy
8:03 PM26 °C22 °C78 %1010.5 hPa16.1 kmENE (70°)13 km/hRainLight Rain
8:07 PM26 °C22 °C78 %1010.5 hPa16.1 kmENE (70°)14.8 km/hRainLight Rain
8:12 PM26 °C23 °C83 %1010.5 hPa16.1 kmENE (70°)18.5 km/hMostly Cloudy
8:54 PM26 °C23 °C83 %1010.8 hPa16.1 kmEast (90°)14.8 km/hScattered Clouds
8:55 PM25.9 °C22.7 °C82 %1010.8 hPa16.1 kmEast (80°)16.7 km/h0 mmScattered Clouds
9:05 PM26 °C23 °C83 %1010.8 hPa16.1 kmEast (80°)14.8 km/hMostly Cloudy
9:08 PM26 °C22 °C78 %1010.8 hPa16.1 kmEast (80°)16.7 km/hScattered Clouds
9:22 PM26 °C23 °C83 %1010.8 hPa16.1 kmENE (70°)18.5 km/hMostly Cloudy
9:38 PM26 °C23 °C83 %1011.2 hPa16.1 kmEast (90°)16.7 km/hScattered Clouds
9:41 PM26 °C22 °C78 %1011.2 hPa16.1 kmEast (80°)13 km/hMostly Cloudy
9:43 PM26 °C23 °C83 %1011.2 hPa16.1 kmEast (80°)14.8 km/hScattered Clouds
9:55 PM25.5 °C22.3 °C82 %1011.2 hPa16.1 kmEast (80°)14.8 km/hPartly Cloudy
10:55 PM25.6 °C22.7 °C84 %1011.5 hPa16.1 kmEast (80°)14.8 km/hScattered Clouds
11:55 PM25.5 °C22.7 °C84 %1011.2 hPa16.1 kmEast (90°)14.8 km/hClear
Hourly data recorded from PGUA, located 0 kilometers away from Inarajan, Guam







STORIES FROM OUR PARTNERS